Flag for Germany Weather past 2 weeks in Ingolstadt, Bavaria, Germany

Now
36 °F

Chilly.


Feels Like: 29 °F
Forecast: 33 / 44 °F
Wind: 8 mph from West

Location: Ingolstadt Airport

Current Time: Dec 21, 2014 at 5:33:59 AM

Latest Report: Dec 21, 2014 at 4:20 AM


Visibility: N/A

Pressure: 30.39 "Hg

Humidity: 93%

Dew point: 34 °F

Location of IngolstadtLocation

Historic Weather in Ingolstadt — Graph

°F

Ingolstadt temperature yesterday

Maximum temperature yesterday: 48 °F (at 12:20 AM)
Minimum temperature yesterday: 37 °F (at 7:20 AM)
Average temperature yesterday: 41 °F

Past Weeks' High & Low Weather Summary

 TemperatureHumidityPressure
High54 °F (Dec 19, 1:20 PM)100% (Dec 6, 4:20 AM)30.45 "Hg (Dec 6, 4:20 AM)
Low28 °F (Dec 8, 11:20 PM)54% (Dec 12, 5:20 PM)29.77 "Hg (Dec 12, 4:20 PM)
Average41 °F88%30.06 "Hg
* Reported Dec 6 4:20 AM — Dec 21 4:20 AM, Ingolstadt, Weather by CustomWeather, © 2014

Note: Actual official high and low records may vary slightly from our data, if they occured in-between our weather recording intervals... More about our weather records

Advertising

Ingolstadt weather history for previous 24 hours

 ConditionsComfort  
Time TempWeatherWind HumidityBarometerVisibility
4:20 AM
Dec 21
36 °FChilly.8 mph93%30.39 "HgN/A
3:20 AM36 °FChilly.12 mph93%30.36 "HgN/A
2:20 AM37 °FChilly.12 mph87%30.36 "HgN/A
1:20 AM37 °FChilly.7 mph93%30.33 "HgN/A
12:20 AM39 °FChilly.16 mph87%30.30 "HgN/A
11:20 PM
Dec 20
39 °FChilly.16 mph87%30.27 "HgN/A
10:20 PM37 °FChilly.14 mph87%30.24 "HgN/A
9:20 PM39 °FChilly.18 mph87%30.24 "HgN/A
8:20 PM37 °FChilly.14 mph93%30.21 "HgN/A
7:20 PM43 °FQuite cool.20 mph71%30.21 "HgN/A
6:20 PM43 °FQuite cool.20 mph66%30.15 "HgN/A
5:20 PM43 °FQuite cool.17 mph66%30.12 "HgN/A
4:20 PM41 °FQuite cool.18 mph70%30.15 "HgN/A
3:20 PM41 °FQuite cool.17 mph70%30.15 "HgN/A
2:20 PM43 °FQuite cool.13 mph66%30.18 "HgN/A
1:20 PM43 °FQuite cool.18 mph61%30.18 "HgN/A
12:20 PM41 °FQuite cool.17 mph70%30.21 "HgN/A
11:20 AM43 °FQuite cool.15 mph71%30.24 "HgN/A
10:20 AM43 °FQuite cool.14 mph76%30.24 "HgN/A
9:20 AM41 °FQuite cool.7 mph81%30.24 "HgN/A
8:20 AM37 °FChilly.8 mph87%30.24 "HgN/A
7:20 AM37 °FChilly.5 mph87%30.24 "HgN/A
6:20 AM41 °FQuite cool.9 mph76%30.24 "HgN/A
5:20 AM41 °FQuite cool.8 mph87%30.21 "HgN/A
Weather by CustomWeather, © 2014

See weather overviewHow to use our weather pages